FENGYUN 1C DEB

Satellite information

Favourite Embed

Satellite Type and Status

DEBRISIN ORBIT

Key statistics

Satellite FENGYUN 1C DEB at a glance.

Uptime

9494

Days in orbit

Revolutions

≈ 14.7

Per day

Orbit

SSO

Sun Synchronous Orbit

Inclination

99.2

Latest

Satellite identification and parameters

Extended collection of information and parameters for FENGYUN 1C DEB.

Object identification

Identified? True

Debris? True

Object name: FENGYUN 1C DEB

International designator: 1999-025ETV

Object number (NORAD): 38728

Object ID (CCSDS): 38728

Country: PEOPLES REPUBLIC OF CHINA (PRC)

Current information (Y/N): Y

RCS size: SMALL

Orbital parameters

Period: 98.171 minutes

Inclination: 99.2397 deg

SMA: 7049.353 km

Apoapsis: 727.781 km

Periapsis: 614.656 km

RAAN: 82.5788 deg

Eccentricy: 0.0080238

Argument of periapsis: 18.2868 deg

Mean anomaly: 357.8384 deg

Mean motion: 14.66826831 rev/day

Mean motion (dot): 0.00012741 rev/day2

B* drag term: 0.0021825 1/REarth

Two-line elements (TLE)

Creation date: May 4, 2025, 5:21 p.m.

Reference frame: TEME

Reference center: EARTH

Epoch: May 4, 2025, 3:27 a.m. UTC

TLE line 0: 0 FENGYUN 1C DEB

TLE line 1: 1 38728U 99025ETV 25124.14384669 .00012741 00000-0 21825-2 0 9993

TLE line 2: 2 38728 99.2397 82.5788 0080238 18.2868 357.8384 14.66826831623443

Live tracking on map

Real-time ground track for satellite FENGYUN 1C DEB.

In-orbit conjunctions

A list of the most updated potential collisions computed for object FENGYUN 1C DEB.

Target Orbit TCA Probability of collision Miss distance Type
PARASOL SSO 2024-11-20 18:15:52 0.0001088193 653.0 (m) PAYLOAD
SL-16 DEB LEO 2024-07-03 15:44:32 0.0001279976 135.0 (m) DEBRIS
COSMOS 2251 DEB LEO 2024-06-07 08:56:34 0.000279679 74.0 (m) DEBRIS

Associated space launch

Chinese polar orbiting meteorological satellite

FENGYUN 1C DEB was lifted into orbit during the mission ‘Long March 4B | Feng Yun 1C’, on board a Long March 4B space rocket.

The launch took place on May 10, 1999, 1:33 a.m. from Launch Complex 7.

For more information about the launch, click the button.

Launch to space Long March 4B | Feng Yun 1C
Long March 4B | Feng Yun 1C

Agency: N/A

Status: Launch Successful

Launch date: May 10, 1999, 1:33 a.m. UTC

Rocket: Long March 4B

Launch pad: Launch Complex 7

Location: Taiyuan Satellite Launch Center, People's Republic of China

...

Latest news about this satellite

There are no fresh news available about this satellite. Check back as we update our databases every day.


Newsletter sign-up

Weekly statistics, charts and insights to help you stay on top of the space industry.